THOR ABLESTAR DEB, 329

Orbit data source: Space-Track

THOR ABLESTAR DEB, 329 is space debris in LEO originally from a launch on Thu, 29 Jun 1961 UTC launched from the Air Force Eastern Test Range (AFETR). Debris objects in space refer to the collection of defunct objects orbiting the Earth. Examples of debris include non-operational satellites, rocket bodies, and fragments generated from explosions, collisions, or faulty payload assembly.

Loading next visibility...
Identifier
329, 1961-015DF
Orbit
LEO
Country
Flag of USUS
Related business
Manufacturer
Unknown
Mission
Spacecraft
Bus & Motor
Unknown
Mass
Unknown
Launch date (UTC)
1961-06-29 (64 years ago)
Launch vehicle
Unknown
Launch site
Air Force Eastern Test Range (AFETR)
Object type
Payload
Rocket body
Debris
Shape & HBR
Unknown shape, 0.1 m
Radar Cross Section
Small (<0.1 m²)

Expand to show TLE details & history
Last TLE update: 22 hours ago

TLE from 22 hours ago
0 THOR ABLESTAR DEB
1 00329U 61015DF  25341.10866417  .00000148  00000-0  25579-3 0  9999
2 00329  66.7798 104.6491 0109842 125.1189  57.5144 13.66062635203778
Epoch: 2025-12-07T02:36Z
TLE epoch observation values (Epoch: 2025-12-07T02:36:28.584Z)
Latitude
-3.5211°
Longitude
170.90804°
Altitude
973.343 km
Speed
7.387 km/s
True Right ascension
19h 04m 36s
True Declination
-3° 30' 03"
Sunlit
Object was in daylight at epoch
Visualization orbit readout
Latitude
Unknown
Longitude
Unknown
Altitude
Unknown
Speed
Unknown
Apparent Right ascension
Unknown
Apparent Declination
Unknown
Sunlit
N/A
Visualization observer readout
Local Sidereal Time
22:28:12
Azimuth
Unknown
Elevation
Unknown
Doppler factor
Unknown
Orbital elements
Apogee altitude
1,093.332 km
Perigee altitude
930.979 km
Semi-major axis
7,390.292 km
Eccentricity
0.01098
Inclination
66.7798°
RAAN
104.6491°
Arg. of periapsis
125.1189°
True anomaly
58.58397°
Mean anomaly
57.5144°
Eccentric anomaly
58.0484°
Mean motion
3.41626 °/min
Orbital period
105.38 mins
BSTAR
0.00025579
Loading maneuver chart data...
Computing Atmospheric mass density...
Loading historical data...
Loading historical data...
Loading historical data...
Loading historical data...
Loading historical data...
Loading historical data...
Loading historical data...

Documentation

Showing up to 5 results
|